Weather Roundup
Issued by NWS

Home | Current Version | Previous Version | Text Only | Print | Product List | Glossary On
Versions: 1 2 3 4 5 6 7 8 9 10 11 12 13 14 15 16 17 18 19 20 21 22 23 24 25 26 27 28 29 30 31 32 33 34 35 36 37 38 39 40 41 42 43 44 45 46 47 48 49 50
677
NZUS93 KARX 310710
HRRWXR

CURRENT HOURLY OBSERVATIONS ACROSS
MUCH OF THE UPPER MISSISSIPPI VALLEY
NATIONAL WEATHER SERVICE LA CROSSE WI
200 AM CDT SUN JUL 31 2016


...SOUTHEAST MINNESOTA...


CITY           SKY/WX    TMP DP  RH WIND       PRES   REMARKS
ROCHESTER      CLOUDY    66  64  93 SE8       30.02F
ROCHESTER/MAYO PTSUNNY   68  64  84 SE6       30.02F
WINONA         CLOUDY    70  64  83 S3        30.02S
AUSTIN         PTCLDY    64  63  94 CALM      30.01S
ALBERT LEA     MOCLDY    66  64  94 S6        30.01R
DODGE CENTER   PTCLDY    63  61  94 SE7       30.01F
PRESTON        CLOUDY    67  61  81 SE5       30.03F
OWATONNA       CLEAR     66  63  88 SE5       30.01R
FARIBAULT      CLEAR     64  63  94 S3        30.00S
$$

...ELSEWHERE IN MINNESOTA...


CITY           SKY/WX    TMP DP  RH WIND       PRES   REMARKS
MINNEAPOLIS    PTCLDY    69  63  81 SE6       29.99F
INTNL FALLS    CLEAR     59  57  93 SE3       29.99S
DULUTH         MOCLDY    61  59  93 E8        30.04S
RED WING       PTCLDY    66  64  94 CALM      29.99F
REDWOOD FALLS  CLEAR     65  62  90 SE7       29.97R
MANKATO        CLEAR     64  59  82 S6        30.00R
WORTHINGTON    CLEAR     65  62  90 S8        29.99F
FAIRMONT       CLEAR     63  59  88 S5        29.99R
$$

...SOUTHWEST WISCONSIN...


CITY           SKY/WX    TMP DP  RH WIND       PRES   REMARKS
LA CROSSE      MOCLDY    67  62  84 E5        30.02F
PRAIRIE DU CHI   N/A     64  62  92 CALM      30.02F
BOSCOBEL       FOG       61  59  93 CALM      30.04S VSB 3/4
LONE ROCK      CLEAR     59  57  93 CALM      30.05R
PLATTEVILLE    CLEAR     63  62  96 E6        30.05S
FORT MC COY    CLEAR     58  58  99 CALM      30.05S
CAMP DOUGLAS   FOG       54  54 100 CALM      30.04S VSB 1/2
MAUSTON-NEW LI SUNNY     57  57  99 CALM      30.04S
VIROQUA        FAIR      62  60  92 SE5       30.05S
WIS DELLS      CLEAR     58  55  91 CALM      30.05R
$$

...ELSEWHERE IN WISCONSIN...


CITY           SKY/WX    TMP DP  RH WIND       PRES   REMARKS
MILWAUKEE      PTCLDY    68  65  90 N5        30.02S
MADISON        CLEAR     58  56  93 CALM      30.04R
GREEN BAY      PTCLDY    57  57 100 NW3       30.03F
EAU CLAIRE     CLOUDY    67  59  75 SE8       30.03S
BLACK RVR FLS  FOG       58  58 100 CALM      30.04S VSB 3/4
MEDFORD        CLEAR     56  54  94 CALM      30.08S
WAUSAU         CLEAR     57  54  89 CALM      30.06S
WIS RAPIDS     CLEAR     56  52  86 CALM      30.07S
MARSHFIELD     CLEAR     61  54  77 CALM      30.06S
RICE LAKE      MOCLDY    65  61  87 E6        30.06S
$$

...NORTHEAST IOWA...


CITY           SKY/WX    TMP DP  RH WIND       PRES   REMARKS
WATERLOO       PTCLDY    66  64  93 E6        29.99F
DUBUQUE          N/A    N/A N/A N/A MISG      30.04S
DECORAH        MOCLDY    64  64 100 SE6       30.02F
MASON CITY     LGT RAIN  68  67  96 S5        30.02F
CHARLES CITY   MOCLDY    66  66 100 SE7       30.02S
OELWEIN        CLOUDY    66  64  94 E7        30.03S
$$

...ELSEWHERE IN IOWA...


CITY           SKY/WX    TMP DP  RH WIND       PRES   REMARKS
DES MOINES     CLEAR     69  65  86 S6        29.99S
IOWA CITY      PTCLDY    68  66  93 SE5       30.01F
FORT DODGE     CLOUDY    68  64  88 CALM      30.00S
MARSHALLTOWN   CLEAR     64  64 100 E6        29.99F
CEDAR RAPIDS   CLEAR     67  67 100 E6        30.00F
$$

...NORTHERN ILLINOIS...


CITY           SKY/WX    TMP DP  RH WIND       PRES   REMARKS
CHICAGO-OHARE  MOCLDY    67  64  90 NW7       30.00S
CHICAGO-MIDWAY PTCLDY    71  65  81 NE5       29.99F
MOLINE         PTCLDY    69  65  86 E9        30.01S
ROCKFORD       CLEAR     63  60  90 CALM      30.05S
PEORIA         PTCLDY    70  67  90 E5        30.01S
$$

NOTE: "FAIR" INDICATES FEW OR NO CLOUDS BELOW 12,000 FEET WITH NO
SIGNIFICANT WEATHER AND/OR OBSTRUCTIONS TO VISIBILITY. WIND
SPEEDS ARE IN MILES-PER-HOUR.




USA.gov is the U.S. government's official web portal to all federal, state and local government web resources and services.